Terminal Aerodrome Forecast
Issued by NWS

Home | Current Version | Previous Version | Text Only | Print | Product List | Glossary On
Versions: 1 2 3 4 5 6 7 8 9 10 11 12 13 14 15 16 17
000
FTUS45 KFGZ 311100
TAFPRC
TAF
KPRC 311132Z 3112/0112 VRB04KT P6SM FEW100
     FM312100 22009G18KT P6SM BKN090
     FM010300 20005KT P6SM FEW090=

USA.gov is the U.S. government's official web portal to all federal, state and local government web resources and services.